Location: Bęczków
(50.8761°N, 20.8028°E)
Time: 17:36:24
(UTC+02:00)

Envisat - Visible Passes

Search period start: 19 October 2019 00:00
Search period end: 28 October 2019 23:00
Orbit: 764 x 766 km, 98.1° (Epoch: 19 October)

Date Brightness Start Highest point End Pass type
(mag) Time Alt. Az. Time Alt. Az. Time Alt. Az.
19 Oct 3.0 18:29:45 10° SSE 18:34:50 90° W 18:39:58 10° NNW visible
19 Oct 6.0 20:11:50 10° WSW 20:14:36 15° W 20:17:24 10° NW visible
20 Oct 5.1 19:33:02 10° SSW 19:37:24 29° W 19:41:48 10° NNW visible
21 Oct 6.6 05:59:29 10° ENE 06:00:50 11° E 06:02:11 10° E visible
21 Oct 3.7 18:55:24 10° S 19:00:23 56° W 19:05:25 10° NNW visible
22 Oct 3.0 18:18:31 10° SSE 18:23:35 75° ENE 18:28:41 10° NNW visible
22 Oct 5.8 19:59:46 10° SW 20:03:11 18° W 20:06:38 10° NW visible
23 Oct 6.0 06:23:14 10° NE 06:26:44 18° E 06:30:13 10° SE visible
23 Oct 4.7 19:21:25 10° SSW 19:26:02 35° W 19:30:42 10° NNW visible
24 Oct 3.4 18:44:02 10° S 18:49:05 69° WSW 18:54:11 10° NNW visible
24 Oct 6.3 20:27:56 10° W 20:29:05 11° W 20:30:15 10° WNW visible
25 Oct 3.0 18:07:20 10° SSE 18:12:20 62° ENE 18:17:23 10° N visible
25 Oct 5.5 19:47:54 10° SW 19:51:47 22° W 19:55:42 10° NW visible
26 Oct 6.2 06:12:27 10° NE 06:15:19 15° E 06:18:10 10° ESE visible
26 Oct 4.3 19:09:53 10° SSW 19:14:42 42° W 19:19:33 10° NNW visible
27 Oct 3.1 17:32:43 10° SSE 17:37:48 84° WSW 17:42:56 10° NNW visible
27 Oct 6.1 19:15:11 10° WSW 19:17:38 13° W 19:20:07 10° NW visible
28 Oct 5.8 05:37:03 10° NE 05:41:09 24° E 05:45:14 10° SE visible
28 Oct 3.2 16:56:13 10° SE 17:01:07 51° ENE 17:06:02 10° N visible
28 Oct 5.2 18:36:09 10° SSW 18:40:24 27° W 18:44:41 10° NW visible
